Regional Weather Roundup
Issued by NWS Cleveland, OH

Home | Current Version | Previous Version | Graphics & Text | Print | Product List | Glossary On
Versions: 1 2 3 4 5 6 7 8 9 10 11 12 13 14 15 16 17 18 19 20 21 22 23 24 25 26 27 28 29 30 31 32 33 34 35 36 37 38 39 40 41 42 43 44 45 46 47 48 49 50
000
ASUS41 KCLE 252310
RWRCLE
OHIO REGIONAL WEATHER ROUNDUP
NATIONAL WEATHER SERVICE CLEVELAND, OH
600 PM EST TUE NOV 25 2014

NOTE: "FAIR" INDICATES FEW OR NO CLOUDS BELOW 12,000 FEET WITH NO
SIGNIFICANT WEATHER AND/OR OBSTRUCTIONS TO VISIBILITY.

OHZ001>008-015>018-024>027-034-035-043-044-260000-
   NORTHWEST OHIO

CITY           SKY/WX    TMP DP  RH WIND       PRES   REMARKS
DEFIANCE       NOT AVBL
FINDLAY        CLOUDY    31  22  69 W9        30.15R WCI  23
TOLEDO EXPRESS CLOUDY    29  21  72 W10       30.16R WCI  20
TOLEDO EXEC    CLOUDY    31  19  61 W12       30.16R WCI  22
LIMA           CLOUDY    29  23  78 W13       30.15R WCI  19
$$

OHZ009>014-019>023-028>033-038-089-260000-
   NORTHEAST OHIO

CITY           SKY/WX    TMP DP  RH WIND       PRES   REMARKS
CLE-HOPKINS    CLOUDY    32  26  78 W12       30.17R WCI  23
CLE-LAKEFRONT  CLOUDY    35  27  72 W18       30.14R WCI  24
CUY CO. ARPT   CLOUDY    36  30  80 W18       30.14R
LORAIN-ELYRIA  CLOUDY    32  26  78 W9        30.15R WCI  24
ASHTABULA      CLOUDY    35  27  72 W12       30.12R WCI  27
AKRON-CANTON   CLOUDY    37  25  61 W5        30.10R
WOOSTER        CLOUDY    34  28  79 W9        30.12R WCI  27
MANSFIELD      CLOUDY    31  27  85 W8        30.12R WCI  23
YOUNGSTOWN     CLOUDY    36  26  67 W10       30.10R
$$

OHZ042-051>053-060>062-070>072-077>081-260000-
  SOUTHWEST OHIO

CITY           SKY/WX    TMP DP  RH WIND       PRES   REMARKS
CINC-COVINGTON MOCLDY    38  26  62 NW5       30.13R
CINC-LUNKEN    PTCLDY    38  28  67 NW3       30.16R
HAMILTON       MOCLDY    36  28  73 N6        30.16R
DAYTON         CLOUDY    34  27  75 NW7       30.15R WCI  28
WRIGHT-PAT AFB CLOUDY    35  28  77 NW8       30.14S WCI  28
DAYTON GENERAL CLOUDY    36  27  69 NW8       30.13R
WILMINGTON     PTCLDY    35  28  75 NW7       30.12R WCI  29
$$

OHZ036-037-039>041-045>050-054>059-063>069-073>076-082>088-260000-
  CENTRAL AND SOUTHEAST OHIO

CITY           SKY/WX    TMP DP  RH WIND       PRES   REMARKS
COLUMBUS       MOCLDY    38  27  64 W7        30.13R
OSU AIRPORT    CLOUDY    36  28  73 NW8       30.13R
BOLTON FIELD   CLOUDY    37  28  70 W6        30.13R
RICKENBACK AFB PTCLDY    36  28  70 NW7       30.13R
NEWARK         CLEAR     35  25  66 CALM      30.12R
MARION         CLOUDY    31  25  78 W9        30.15R WCI  23
LANCASTER      CLEAR     32  25  75 CALM      30.14R
ZANESVILLE     CLEAR     35  25  66 NW3       30.13R
NEW PHILLY     PTCLDY    38  26  62 NW7       30.13R
$$



USA.gov is the U.S. government's official web portal to all federal, state and local government web resources and services.